Date,Day,Week locator,Up to 1 hr,1 to 2 hrs,2 to 3 hrs,3 to 4 hrs,4 to 5 hrs,5 to 6 hrs,6 to <24 hours,24 hours +,Subscribers,Total Exc Sub,Comments,,Month
01-04-2012,SUN,52_2011/12, 70 , 226 , 174 , 122 , 84 , 36 , 59 , 5 , 20 , 776 , -   ,,01/04/2012
02-04-2012,MON,1_2012/13, 98 , 277 , 144 , 91 , 63 , 41 , 101 , 3 , 77 , 818 , -   ,,01/04/2012
03-04-2012,TUE,1_2012/13, 120 , 268 , 177 , 97 , 80 , 31 , 123 , 1 , 103 , 897 , -   ,,01/04/2012
04-04-2012,WED,1_2012/13, 118 , 301 , 170 , 110 , 78 , 33 , 116 , 7 , 103 , 933 , -   ,,01/04/2012
05-04-2012,THU,1_2012/13, 129 , 336 , 178 , 120 , 57 , 44 , 55 , 1 , 88 , 920 , -   ,,01/04/2012
06-04-2012,FRI,1_2012/13, 73 , 223 , 274 , 174 , 103 , 44 , 33 , 2 , 18 , 926 , -   ,,01/04/2012
07-04-2012,SAT,1_2012/13, 120 , 289 , 268 , 195 , 124 , 65 , 60 , 2 , 15 ," 1,123 ", -   ,,01/04/2012
08-04-2012,SUN,1_2012/13, 30 , 143 , 76 , 42 , 28 , 13 , 18 , 2 , 12 , 352 , -   ,,01/04/2012
09-04-2012,MON,2_2012/13, 49 , 281 , 245 , 139 , 69 , 29 , 28 , 1 , 15 , 841 , -   ,,01/04/2012
10-04-2012,TUE,2_2012/13, 99 , 292 , 175 , 108 , 72 , 33 , 121 , 2 , 96 , 902 , -   ,,01/04/2012
11-04-2012,WED,2_2012/13, 90 , 292 , 164 , 104 , 84 , 50 , 113 , 2 , 114 , 899 , -   ,,01/04/2012
12-04-2012,THU,2_2012/13, 89 , 312 , 163 , 94 , 80 , 31 , 105 , 1 , 97 , 875 , -   ,,01/04/2012
13-04-2012,FRI,2_2012/13, 109 , 269 , 202 , 114 , 80 , 36 , 102 , 2 , 84 , 914 , -   ,,01/04/2012
14-04-2012,SAT,2_2012/13, 120 , 324 , 312 , 176 , 142 , 66 , 92 ,               -   , 14 ," 1,232 ", -   ,,01/04/2012
15-04-2012,SUN,2_2012/13, 83 , 259 , 175 , 91 , 68 , 26 , 42 , 6 , 17 , 750 , -   ,,01/04/2012
16-04-2012,MON,3_2012/13, 77 , 262 , 146 , 68 , 40 , 32 , 123 , 1 , 87 , 749 , -   ,,01/04/2012
17-04-2012,TUE,3_2012/13, 125 , 272 , 147 , 94 , 52 , 39 , 129 ,               -   , 114 , 858 , -   ,,01/04/2012
18-04-2012,WED,3_2012/13, 105 , 262 , 138 , 77 , 51 , 37 , 133 , 4 , 105 , 807 , -   ,,01/04/2012
19-04-2012,THU,3_2012/13, 97 , 332 , 153 , 84 , 44 , 24 , 146 , 1 , 107 , 881 , -   ,,01/04/2012
20-04-2012,FRI,3_2012/13, 111 , 246 , 155 , 79 , 74 , 32 , 128 , 3 , 86 , 828 , -   ,,01/04/2012
21-04-2012,SAT,3_2012/13, 150 , 374 , 336 , 244 , 128 , 76 , 72 , 1 , 18 ," 1,381 ", -   ,,01/04/2012
22-04-2012,SUN,3_2012/13, 81 , 293 , 214 , 119 , 61 , 28 , 56 , 3 , 16 , 855 , -   ,,01/04/2012
23-04-2012,MON,4_2012/13, 90 , 239 , 125 , 86 , 42 , 24 , 123 ,               -   , 89 , 729 , -   ,,01/04/2012
24-04-2012,TUE,4_2012/13, 118 , 248 , 176 , 84 , 34 , 32 , 136 ,               -   , 106 , 828 , -   ,,01/04/2012
25-04-2012,WED,4_2012/13, 89 , 284 , 112 , 88 , 51 , 23 , 148 ,               -   , 98 , 795 , -   ,,01/04/2012
26-04-2012,THU,4_2012/13, 111 , 301 , 134 , 84 , 58 , 32 , 140 , 3 , 104 , 863 , -   ,,01/04/2012
27-04-2012,FRI,4_2012/13, 142 , 231 , 130 , 81 , 52 , 24 , 106 , 1 , 79 , 767 , -   ,,01/04/2012
28-04-2012,SAT,4_2012/13, 155 , 388 , 375 , 202 , 134 , 73 , 74 ,               -   , 25 ," 1,401 ", -   ,,01/04/2012
29-04-2012,SUN,4_2012/13, 103 , 357 , 261 , 120 , 65 , 21 , 44 , 2 , 16 , 973 , -   ,,01/04/2012
30-04-2012,MON,5_2012/13, 93 , 264 , 153 , 98 , 56 , 30 , 135 ,               -   , 91 , 829 , -   ,,01/04/2012
01-05-2012,TUE,5_2012/13, 113 , 262 , 168 , 98 , 52 , 37 , 144 , 1 , 107 , 875 , -   ,,01/05/2012
02-05-2012,WED,5_2012/13, 107 , 260 , 137 , 90 , 47 , 31 , 160 , 1 , 100 , 833 , -   ,,01/05/2012
03-05-2012,THU,5_2012/13, 116 , 300 , 143 , 96 , 60 , 33 , 155 , 1 , 100 , 904 , -   ,,01/05/2012
04-05-2012,FRI,5_2012/13, 151 , 212 , 144 , 90 , 63 , 27 , 127 , 2 , 94 , 816 , -   ,,01/05/2012
05-05-2012,SAT,5_2012/13, 137 , 335 , 298 , 213 , 125 , 55 , 96 , 5 , 17 ," 1,264 ", -   ,,01/05/2012
06-05-2012,SUN,5_2012/13, 62 , 280 , 214 , 127 , 81 , 34 , 36 , 12 , 18 , 846 , -   ,,01/05/2012
07-05-2012,MON,6_2012/13, 73 , 268 , 264 , 170 , 74 , 43 , 34 , 1 , 11 , 927 , -   ,,01/05/2012
08-05-2012,TUE,6_2012/13, 143 , 251 , 123 , 87 , 39 , 25 , 129 , 6 , 95 , 803 , -   ,,01/05/2012
09-05-2012,WED,6_2012/13, 102 , 261 , 138 , 76 , 46 , 25 , 149 ,               -   , 115 , 797 , -   ,,01/05/2012
10-05-2012,THU,6_2012/13, 138 , 292 , 138 , 65 , 40 , 32 , 156 , 2 , 103 , 863 , -   ,,01/05/2012
11-05-2012,FRI,6_2012/13, 118 , 232 , 162 , 90 , 71 , 34 , 118 , 3 , 92 , 828 , -   ,,01/05/2012
12-05-2012,SAT,6_2012/13, 154 , 341 , 302 , 208 , 110 , 60 , 70 , 1 , 19 ," 1,246 ", -   ,,01/05/2012
13-05-2012,SUN,6_2012/13, 66 , 237 , 165 , 82 , 47 , 22 , 27 , 3 , 18 , 649 , -   ,,01/05/2012
14-05-2012,MON,7_2012/13, 97 , 254 , 112 , 51 , 37 , 24 , 121 , 1 , 108 , 697 , -   ,,01/05/2012
15-05-2012,TUE,7_2012/13, 95 , 252 , 131 , 76 , 47 , 26 , 113 ,               -   , 112 , 740 , -   ,,01/05/2012
16-05-2012,WED,7_2012/13, 102 , 231 , 132 , 88 , 44 , 27 , 132 , 1 , 108 , 757 , -   ,,01/05/2012
17-05-2012,THU,7_2012/13, 107 , 268 , 147 , 77 , 55 , 23 , 128 , 1 , 103 , 806 , -   ,,01/05/2012
18-05-2012,FRI,7_2012/13, 124 , 247 , 125 , 109 , 73 , 33 , 111 , 3 , 98 , 825 , -   ,,01/05/2012
19-05-2012,SAT,7_2012/13, 131 , 368 , 312 , 211 , 142 , 62 , 81 ,               -   , 15 ," 1,307 ", -   ,,01/05/2012
20-05-2012,SUN,7_2012/13, 85 , 309 , 221 , 144 , 51 , 22 , 31 , 5 , 14 , 868 , -   ,,01/05/2012
21-05-2012,MON,8_2012/13, 117 , 230 , 128 , 67 , 36 , 27 , 118 , 1 , 101 , 724 , -   ,,01/05/2012
22-05-2012,TUE,8_2012/13, 115 , 246 , 162 , 92 , 69 , 31 , 120 ,               -   , 109 , 835 , -   ,,01/05/2012
23-05-2012,WED,8_2012/13, 99 , 248 , 117 , 99 , 68 , 27 , 122 , 3 , 101 , 783 , -   ,,01/05/2012
24-05-2012,THU,8_2012/13, 113 , 270 , 136 , 78 , 74 , 52 , 125 , 1 , 112 , 849 , -   ,,01/05/2012
25-05-2012,FRI,8_2012/13, 130 , 212 , 159 , 98 , 64 , 40 , 89 , 1 , 85 , 793 , -   ,,01/05/2012
26-05-2012,SAT,8_2012/13, 160 , 293 , 236 , 183 , 128 , 72 , 80 , 1 , 17 ," 1,153 ", -   ,,01/05/2012
27-05-2012,SUN,8_2012/13, 78 , 228 , 182 , 94 , 84 , 41 , 40 , 3 , 16 , 750 , -   ,,01/05/2012
28-05-2012,MON,9_2012/13, 120 , 231 , 98 , 76 , 49 , 29 , 134 ,               -   , 95 , 737 , -   ,,01/05/2012
29-05-2012,TUE,9_2012/13, 111 , 238 , 128 , 86 , 70 , 31 , 137 , 3 , 97 , 804 , -   ,,01/05/2012
30-05-2012,WED,9_2012/13, 108 , 253 , 127 , 95 , 52 , 43 , 125 , 1 , 117 , 804 , -   ,,01/05/2012
31-05-2012,THU,9_2012/13, 116 , 282 , 163 , 86 , 53 , 36 , 146 , 3 , 94 , 885 , -   ,,01/05/2012
01-06-2012,FRI,9_2012/13, 135 , 197 , 152 , 88 , 62 , 37 , 124 , 4 , 85 , 799 , -   ,,01/06/2012
02-06-2012,SAT,9_2012/13, 130 , 324 , 245 , 176 , 123 , 71 , 83 ,               -   , 15 ," 1,152 ", -   ,,01/06/2012
03-06-2012,SUN,9_2012/13, 74 , 269 , 194 , 119 , 51 , 19 , 31 , 2 , 18 , 759 , -   ,,01/06/2012
04-06-2012,MON,10_2012/13, 53 , 235 , 215 , 135 , 91 , 52 , 29 ,               -   , 10 , 810 , -   ,,01/06/2012
05-06-2012,TUE,10_2012/13, 69 , 222 , 191 , 125 , 73 , 37 , 18 ,               -   , 16 , 735 , -   ,,01/06/2012
06-06-2012,WED,10_2012/13, 103 , 247 , 207 , 124 , 72 , 38 , 133 , 1 , 89 , 925 , -   ,,01/06/2012
07-06-2012,THU,10_2012/13, 116 , 336 , 224 , 132 , 60 , 39 , 128 ,               -   , 92 ," 1,035 ", -   ,,01/06/2012
08-06-2012,FRI,10_2012/13, 126 , 286 , 219 , 101 , 59 , 34 , 106 , 5 , 81 , 936 , -   ,,01/06/2012
09-06-2012,SAT,10_2012/13, 132 , 339 , 274 , 179 , 95 , 48 , 55 ,               -   , 21 ," 1,122 ", -   ,,01/06/2012
10-06-2012,SUN,10_2012/13, 63 , 278 , 195 , 118 , 54 , 25 , 32 , 2 , 20 , 767 , -   ,,01/06/2012
11-06-2012,MON,11_2012/13, 86 , 245 , 127 , 65 , 40 , 33 , 157 , 2 , 97 , 755 , -   ,,01/06/2012
12-06-2012,TUE,11_2012/13, 107 , 274 , 127 , 87 , 54 , 25 , 163 , 1 , 98 , 838 , -   ,,01/06/2012
13-06-2012,WED,11_2012/13, 109 , 257 , 161 , 94 , 63 , 28 , 162 ,               -   , 103 , 874 , -   ,,01/06/2012
14-06-2012,THU,11_2012/13, 128 , 285 , 155 , 65 , 50 , 40 , 151 , 1 , 101 , 875 , -   ,,01/06/2012
15-06-2012,FRI,11_2012/13, 129 , 205 , 140 , 89 , 65 , 29 , 112 , 1 , 84 , 770 , -   ,,01/06/2012
16-06-2012,SAT,11_2012/13, 175 , 468 , 395 , 224 , 140 , 48 , 82 ,               -   , 23 ," 1,532 ", -   ,,01/06/2012
17-06-2012,SUN,11_2012/13, 120 , 427 , 365 , 180 , 103 , 31 , 50 , 11 , 17 ," 1,287 ", -   ,,01/06/2012
18-06-2012,MON,12_2012/13, 93 , 258 , 118 , 72 , 39 , 21 , 129 ,               -   , 103 , 730 , -   ,,01/06/2012
19-06-2012,TUE,12_2012/13, 136 , 253 , 130 , 89 , 62 , 25 , 146 ,               -   , 89 , 841 , -   ,,01/06/2012
20-06-2012,WED,12_2012/13, 112 , 238 , 143 , 99 , 59 , 23 , 138 ,               -   , 93 , 812 , -   ,,01/06/2012
21-06-2012,THU,12_2012/13, 101 , 275 , 131 , 74 , 42 , 25 , 156 , 2 , 90 , 806 , -   ,,01/06/2012
22-06-2012,FRI,12_2012/13, 115 , 236 , 142 , 86 , 50 , 25 , 132 , 2 , 75 , 788 , -   ,,01/06/2012
23-06-2012,SAT,12_2012/13, 147 , 343 , 348 , 229 , 155 , 78 , 81 , 2 , 21 ," 1,383 ", -   ,,01/06/2012
24-06-2012,SUN,12_2012/13, 96 , 299 , 250 , 214 , 97 , 35 , 200 , 2 , 15 ," 1,193 ", -   ,,01/06/2012
25-06-2012,MON,13_2012/13, 113 , 241 , 132 , 84 , 38 , 29 , 143 , 3 , 86 , 783 , -   ,,01/06/2012
26-06-2012,TUE,13_2012/13, 123 , 249 , 132 , 70 , 36 , 26 , 140 , 1 , 92 , 777 , -   ,,01/06/2012
27-06-2012,WED,13_2012/13, 113 , 243 , 119 , 90 , 60 , 36 , 143 , 2 , 97 , 806 , -   ,,01/06/2012
28-06-2012,THU,13_2012/13, 117 , 251 , 147 , 110 , 76 , 52 , 142 , 1 , 98 , 896 , -   ,,01/06/2012
29-06-2012,FRI,13_2012/13, 152 , 230 , 181 , 97 , 65 , 56 , 155 , 4 , 88 , 940 , -   ,,01/06/2012
30-06-2012,SAT,13_2012/13, 163 , 360 , 342 , 270 , 182 , 77 , 79 , 4 , 15 ," 1,477 ", -   ,,01/06/2012
01-07-2012,SUN,13_2012/13, 81 , 288 , 276 , 204 , 109 , 53 , 47 , 1 , 19 ," 1,059 ", -   ,,01/07/2012
02-07-2012,MON,14_2012/13, 127 , 262 , 116 , 62 , 48 , 30 , 121 , 2 , 94 , 768 , -   ,,01/07/2012
03-07-2012,TUE,14_2012/13, 122 , 264 , 124 , 68 , 66 , 30 , 121 , 2 , 100 , 797 , -   ,,01/07/2012
04-07-2012,WED,14_2012/13, 135 , 280 , 168 , 112 , 60 , 26 , 138 , 2 , 92 , 921 , -   ,,01/07/2012
05-07-2012,THU,14_2012/13, 139 , 283 , 153 , 88 , 86 , 40 , 163 , 6 , 99 , 958 , -   ,,01/07/2012
06-07-2012,FRI,14_2012/13, 132 , 314 , 218 , 115 , 78 , 43 , 155 , 7 , 91 ," 1,062 ", -   ,,01/07/2012
07-07-2012,SAT,14_2012/13, 216 , 358 , 325 , 239 , 130 , 85 , 142 , 2 , 24 ," 1,497 ", -   ,,01/07/2012
08-07-2012,SUN,14_2012/13, 177 , 367 , 259 , 114 , 80 , 46 , 52 , 9 , 24 ," 1,104 ", -   ,,01/07/2012
09-07-2012,MON,15_2012/13, 76 , 250 , 125 , 76 , 50 , 33 , 122 ,               -   , 90 , 732 , -   ,,01/07/2012
10-07-2012,TUE,15_2012/13, 108 , 248 , 151 , 80 , 52 , 31 , 117 , 4 , 95 , 791 , -   ,,01/07/2012
11-07-2012,WED,15_2012/13, 90 , 229 , 148 , 98 , 55 , 32 , 137 ,               -   , 106 , 789 , -   ,,01/07/2012
12-07-2012,THU,15_2012/13, 105 , 291 , 139 , 83 , 53 , 37 , 117 , 1 , 89 , 826 , -   ,,01/07/2012
13-07-2012,FRI,15_2012/13, 96 , 228 , 148 , 93 , 66 , 34 , 95 ,               -   , 90 , 760 , -   ,,01/07/2012
14-07-2012,SAT,15_2012/13, 157 , 409 , 399 , 252 , 123 , 54 , 80 , 1 , 14 ," 1,475 ", -   ,,01/07/2012
15-07-2012,SUN,15_2012/13, 111 , 183 , 184 , 165 , 105 , 51 , 149 , 3 , 20 , 951 , -   ,,01/07/2012
16-07-2012,MON,16_2012/13, 119 , 303 , 123 , 73 , 51 , 32 , 105 ,               -   , 90 , 806 , -   ,,01/07/2012
17-07-2012,TUE,16_2012/13, 116 , 242 , 149 , 96 , 60 , 39 , 125 , 1 , 100 , 828 , -   ,,01/07/2012
18-07-2012,WED,16_2012/13, 109 , 261 , 146 , 101 , 71 , 45 , 144 , 2 , 101 , 879 , -   ,,01/07/2012
19-07-2012,THU,16_2012/13, 101 , 240 , 165 , 80 , 64 , 33 , 117 ,               -   , 103 , 800 , -   ,,01/07/2012
20-07-2012,FRI,16_2012/13, 118 , 241 , 135 , 102 , 67 , 36 , 116 , 3 , 88 , 818 , -   ,,01/07/2012
21-07-2012,SAT,16_2012/13, 123 , 312 , 260 , 188 , 122 , 67 , 88 , 3 , 21 ," 1,163 ", -   ,,01/07/2012
22-07-2012,SUN,16_2012/13, 83 , 244 , 179 , 136 , 91 , 38 , 46 , 2 , 21 , 819 , -   ,,01/07/2012
23-07-2012,MON,17_2012/13, 102 , 259 , 124 , 85 , 66 , 31 , 111 , 1 , 91 , 779 , -   ,,01/07/2012
24-07-2012,TUE,17_2012/13, 100 , 254 , 173 , 93 , 59 , 34 , 134 , 3 , 103 , 850 , -   ,,01/07/2012
25-07-2012,WED,17_2012/13, 113 , 266 , 177 , 140 , 80 , 46 , 140 , 1 , 106 , 963 , -   ,,01/07/2012
26-07-2012,THU,17_2012/13, 88 , 252 , 162 , 101 , 49 , 37 , 160 ,               -   , 100 , 849 , -   ,,01/07/2012
27-07-2012,FRI,17_2012/13, 101 , 216 , 137 , 106 , 58 , 40 , 123 , 2 , 86 , 783 , -   ,,01/07/2012
28-07-2012,SAT,17_2012/13, 107 , 249 , 196 , 146 , 114 , 54 , 79 , 2 , 17 , 947 , -   ,,01/07/2012
29-07-2012,SUN,17_2012/13, 75 , 259 , 182 , 112 , 74 , 27 , 28 , 3 , 23 , 760 , -   ,,01/07/2012
30-07-2012,MON,18_2012/13, 117 , 263 , 166 , 86 , 53 , 37 , 130 ,               -   , 104 , 852 , -   ,,01/07/2012
31-07-2012,TUE,18_2012/13, 147 , 255 , 193 , 103 , 58 , 28 , 163 , 3 , 100 , 950 , -   ,,01/07/2012
01-08-2012,WED,18_2012/13, 112 , 251 , 164 , 104 , 72 , 35 , 145 , 5 , 95 , 888 , -   ,,01/08/2012
02-08-2012,THU,18_2012/13, 113 , 264 , 147 , 91 , 53 , 36 , 121 , 4 , 85 , 829 , -   ,,01/08/2012
03-08-2012,FRI,18_2012/13, 108 , 251 , 167 , 109 , 78 , 45 , 103 , 3 , 77 , 864 , -   ,,01/08/2012
04-08-2012,SAT,18_2012/13, 124 , 287 , 222 , 170 , 97 , 53 , 61 , 3 , 17 ," 1,017 ", -   ,,01/08/2012
05-08-2012,SUN,18_2012/13, 68 , 272 , 154 , 92 , 68 , 26 , 33 , 9 , 13 , 722 , -   ,,01/08/2012
06-08-2012,MON,19_2012/13, 90 , 299 , 146 , 105 , 52 , 31 , 131 , 1 , 95 , 855 , -   ,,01/08/2012
07-08-2012,TUE,19_2012/13, 122 , 241 , 143 , 82 , 51 , 30 , 141 , 6 , 99 , 816 , -   ,,01/08/2012
08-08-2012,WED,19_2012/13, 95 , 290 , 138 , 91 , 59 , 28 , 128 , 4 , 100 , 833 , -   ,,01/08/2012
09-08-2012,THU,19_2012/13, 102 , 254 , 159 , 94 , 66 , 40 , 116 , 1 , 98 , 832 , -   ,,01/08/2012
10-08-2012,FRI,19_2012/13, 99 , 249 , 148 , 115 , 66 , 32 , 100 ,               -   , 80 , 809 , -   ,,01/08/2012
11-08-2012,SAT,19_2012/13, 99 , 263 , 211 , 187 , 105 , 56 , 76 , 2 , 12 , 999 , -   ,,01/08/2012
12-08-2012,SUN,19_2012/13, 51 , 215 , 152 , 93 , 50 , 36 , 42 , 3 , 14 , 642 , -   ,,01/08/2012
13-08-2012,MON,20_2012/13, 115 , 284 , 144 , 80 , 64 , 29 , 125 ,               -   , 87 , 841 , -   ,,01/08/2012
14-08-2012,TUE,20_2012/13, 112 , 296 , 163 , 92 , 57 , 34 , 111 ,               -   , 94 , 865 , -   ,,01/08/2012
15-08-2012,WED,20_2012/13, 107 , 287 , 160 , 108 , 62 , 38 , 120 , 1 , 91 , 883 , -   ,,01/08/2012
16-08-2012,THU,20_2012/13, 99 , 279 , 152 , 93 , 50 , 41 , 129 , 1 , 101 , 844 , -   ,,01/08/2012
17-08-2012,FRI,20_2012/13, 111 , 296 , 165 , 102 , 65 , 26 , 108 , 2 , 87 , 875 , -   ,,01/08/2012
18-08-2012,SAT,20_2012/13, 114 , 230 , 230 , 150 , 111 , 51 , 57 , 3 , 15 , 946 , -   ,,01/08/2012
19-08-2012,SUN,20_2012/13, 195 , 331 , 242 , 135 , 120 , 65 , 64 ,               -   , 19 ," 1,152 ", -   ,,01/08/2012
20-08-2012,MON,21_2012/13, 93 , 255 , 182 , 95 , 65 , 43 , 127 ,               -   , 87 , 860 , -   ,,01/08/2012
21-08-2012,TUE,21_2012/13, 109 , 285 , 160 , 96 , 70 , 29 , 126 , 2 , 86 , 877 , -   ,,01/08/2012
22-08-2012,WED,21_2012/13, 105 , 295 , 179 , 105 , 77 , 49 , 119 ,               -   , 92 , 929 , -   ,,01/08/2012
23-08-2012,THU,21_2012/13, 110 , 314 , 170 , 108 , 73 , 29 , 134 , 1 , 97 , 939 , -   ,,01/08/2012
24-08-2012,FRI,21_2012/13, 121 , 316 , 202 , 116 , 85 , 51 , 100 ,               -   , 73 , 991 , -   ,,01/08/2012
25-08-2012,SAT,21_2012/13, 110 , 247 , 264 , 172 , 127 , 58 , 53 ,               -   , 14 ," 1,031 ", -   ,,01/08/2012
26-08-2012,SUN,21_2012/13, 66 , 276 , 236 , 163 , 120 , 56 , 62 , 4 , 17 , 983 , -   ,,01/08/2012
27-08-2012,MON,22_2012/13, 77 , 265 , 243 , 200 , 113 , 48 , 31 ,               -   , 16 , 977 , -   ,,01/08/2012
28-08-2012,TUE,22_2012/13, 144 , 269 , 181 , 117 , 86 , 34 , 138 , 1 , 87 , 970 , -   ,,01/08/2012
29-08-2012,WED,22_2012/13, 120 , 301 , 180 , 88 , 68 , 36 , 115 , 1 , 96 , 909 , -   ,,01/08/2012
30-08-2012,THU,22_2012/13, 117 , 294 , 174 , 77 , 57 , 40 , 122 , 1 , 94 , 882 , -   ,,01/08/2012
31-08-2012,FRI,22_2012/13, 103 , 289 , 208 , 114 , 84 , 45 , 107 ,               -   , 86 , 950 , -   ,,01/08/2012
01-09-2012,SAT,22_2012/13, 111 , 314 , 269 , 195 , 153 , 58 , 80 , 3 , 20 ," 1,183 ", -   ,,01/09/2012
02-09-2012,SUN,22_2012/13, 85 , 269 , 185 , 106 , 81 , 65 , 204 , 5 , 16 ," 1,000 ", -   ,,01/09/2012
03-09-2012,MON,23_2012/13, 109 , 252 , 175 , 111 , 67 , 32 , 130 ,               -   , 95 , 876 , -   ,,01/09/2012
04-09-2012,TUE,23_2012/13, 102 , 271 , 167 , 104 , 49 , 31 , 142 , 1 , 106 , 867 , -   ,,01/09/2012
05-09-2012,WED,23_2012/13, 117 , 230 , 153 , 82 , 57 , 33 , 126 ,               -   , 100 , 798 , -   ,,01/09/2012
06-09-2012,THU,23_2012/13, 114 , 252 , 141 , 86 , 51 , 30 , 138 ,               -   , 98 , 812 , -   ,,01/09/2012
07-09-2012,FRI,23_2012/13, 105 , 214 , 181 , 105 , 67 , 42 , 110 , 9 , 86 , 833 , -   ,,01/09/2012
08-09-2012,SAT,23_2012/13, 143 , 345 , 319 , 176 , 129 , 60 , 94 ,               -   , 13 ," 1,266 ", -   ,,01/09/2012
09-09-2012,SUN,23_2012/13, 82 , 266 , 161 , 104 , 61 , 26 , 43 , 1 , 20 , 744 , -   ,,01/09/2012
10-09-2012,MON,24_2012/13, 81 , 218 , 91 , 70 , 48 , 27 , 164 , 1 , 80 , 700 , -   ,,01/09/2012
11-09-2012,TUE,24_2012/13, 116 , 259 , 151 , 96 , 46 , 32 , 144 , 2 , 93 , 846 , -   ,,01/09/2012
12-09-2012,WED,24_2012/13, 114 , 263 , 132 , 78 , 67 , 37 , 149 , 1 , 94 , 841 , -   ,,01/09/2012
13-09-2012,THU,24_2012/13, 129 , 271 , 149 , 81 , 47 , 29 , 161 ,               -   , 98 , 867 , -   ,,01/09/2012
14-09-2012,FRI,24_2012/13, 108 , 240 , 152 , 83 , 51 , 36 , 109 , 1 , 74 , 780 , -   ,,01/09/2012
15-09-2012,SAT,24_2012/13, 159 , 395 , 321 , 236 , 144 , 72 , 100 ,               -   , 24 ," 1,427 ", -   ,,01/09/2012
16-09-2012,SUN,24_2012/13, 129 , 385 , 286 , 175 , 97 , 44 , 47 , 7 , 20 ," 1,170 ", -   ,,01/09/2012
17-09-2012,MON,25_2012/13, 97 , 256 , 124 , 72 , 43 , 32 , 146 , 1 , 93 , 771 , -   ,,01/09/2012
18-09-2012,TUE,25_2012/13, 119 , 252 , 129 , 107 , 60 , 33 , 139 , 2 , 104 , 841 , -   ,,01/09/2012
19-09-2012,WED,25_2012/13, 108 , 256 , 146 , 77 , 59 , 39 , 140 , 3 , 92 , 828 , -   ,,01/09/2012
20-09-2012,THU,25_2012/13, 114 , 259 , 156 , 80 , 60 , 32 , 157 , 3 , 97 , 861 , -   ,,01/09/2012
21-09-2012,FRI,25_2012/13, 121 , 229 , 141 , 79 , 57 , 37 , 117 , 1 , 80 , 782 , -   ,,01/09/2012
22-09-2012,SAT,25_2012/13, 166 , 356 , 297 , 213 , 143 , 55 , 81 , 3 , 20 ," 1,314 ", -   ,,01/09/2012
23-09-2012,SUN,25_2012/13, 115 , 361 , 210 , 137 , 50 , 19 , 36 , 11 , 20 , 939 , -   ,,01/09/2012
24-09-2012,MON,26_2012/13, 88 , 271 , 118 , 82 , 36 , 35 , 151 , 2 , 96 , 783 , -   ,,01/09/2012
25-09-2012,TUE,26_2012/13, 117 , 270 , 162 , 83 , 60 , 32 , 166 , 1 , 108 , 891 , -   ,,01/09/2012
26-09-2012,WED,26_2012/13, 104 , 254 , 160 , 84 , 71 , 40 , 160 , 1 , 100 , 874 , -   ,,01/09/2012
27-09-2012,THU,26_2012/13, 144 , 292 , 175 , 129 , 66 , 55 , 204 , 1 , 100 ," 1,066 ", -   ,,01/09/2012
28-09-2012,FRI,26_2012/13, 118 , 234 , 171 , 107 , 68 , 35 , 121 , 1 , 83 , 855 , -   ,,01/09/2012
29-09-2012,SAT,26_2012/13, 155 , 385 , 359 , 282 , 141 , 58 , 79 , 3 , 22 ," 1,462 ", -   ,,01/09/2012
30-09-2012,SUN,26_2012/13, 88 , 336 , 298 , 229 , 83 , 34 , 46 , 4 , 22 ," 1,118 ", -   ,,01/09/2012
01-10-2012,MON,27_2012/13, 100 , 255 , 142 , 80 , 37 , 35 , 129 ,               -   , 96 , 778 , -   ,,01/10/2012
02-10-2012,TUE,27_2012/13, 136 , 254 , 162 , 101 , 69 , 48 , 202 , 1 , 97 , 973 , -   ,,01/10/2012
03-10-2012,WED,27_2012/13, 120 , 260 , 161 , 109 , 56 , 66 , 166 , 2 , 105 , 940 , -   ,,01/10/2012
04-10-2012,THU,27_2012/13, 112 , 297 , 149 , 110 , 57 , 31 , 132 , 1 , 97 , 889 , -   ,,01/10/2012
05-10-2012,FRI,27_2012/13, 132 , 240 , 162 , 98 , 56 , 32 , 121 , 1 , 83 , 842 , -   ,,01/10/2012
06-10-2012,SAT,27_2012/13, 182 , 332 , 323 , 234 , 164 , 82 , 71 , 1 , 14 ," 1,389 ", -   ,,01/10/2012
07-10-2012,SUN,27_2012/13, 82 , 297 , 219 , 196 , 86 , 45 , 48 , 2 , 21 , 975 , -   ,,01/10/2012
08-10-2012,MON,28_2012/13, 97 , 232 , 143 , 113 , 52 , 28 , 154 , 2 , 99 , 821 , -   ,,01/10/2012
09-10-2012,TUE,28_2012/13, 136 , 246 , 125 , 115 , 90 , 127 , 323 ,               -   , 94 ," 1,162 ", -   ,,01/10/2012
10-10-2012,WED,28_2012/13, 136 , 213 , 134 , 103 , 130 , 148 , 310 , 1 , 94 ," 1,175 ", -   ,,01/10/2012
11-10-2012,THU,28_2012/13, 154 , 293 , 161 , 121 , 80 , 54 , 207 , 4 , 105 ," 1,074 ", -   ,,01/10/2012
12-10-2012,FRI,28_2012/13, 101 , 236 , 149 , 94 , 62 , 40 , 155 , 2 , 96 , 839 , -   ,,01/10/2012
13-10-2012,SAT,28_2012/13, 136 , 354 , 344 , 273 , 146 , 75 , 71 , 1 , 17 ," 1,400 ", -   ,,01/10/2012
14-10-2012,SUN,28_2012/13, 104 , 305 , 245 , 163 , 60 , 35 , 26 , 2 , 14 , 940 , -   ,,01/10/2012
15-10-2012,MON,29_2012/13, 78 , 241 , 126 , 87 , 57 , 25 , 125 , 1 , 87 , 740 , -   ,,01/10/2012
16-10-2012,TUE,29_2012/13, 112 , 225 , 159 , 96 , 44 , 32 , 157 ,               -   , 107 , 825 , -   ,,01/10/2012
17-10-2012,WED,29_2012/13, 92 , 249 , 131 , 75 , 46 , 33 , 151 ,               -   , 100 , 777 , -   ,,01/10/2012
18-10-2012,THU,29_2012/13, 100 , 286 , 152 , 100 , 47 , 39 , 137 , 1 , 111 , 862 , -   ,,01/10/2012
19-10-2012,FRI,29_2012/13, 92 , 186 , 160 , 90 , 59 , 33 , 103 ,               -   , 96 , 723 , -   ,,01/10/2012
20-10-2012,SAT,29_2012/13, 163 , 360 , 316 , 214 , 136 , 72 , 68 , 1 , 18 ," 1,330 ", -   ,,01/10/2012
21-10-2012,SUN,29_2012/13, 109 , 336 , 250 , 143 , 78 , 31 , 32 , 3 , 20 , 982 , -   ,,01/10/2012
22-10-2012,MON,30_2012/13, 75 , 273 , 125 , 82 , 39 , 22 , 131 , 1 , 102 , 748 , -   ,,01/10/2012
23-10-2012,TUE,30_2012/13, 119 , 251 , 187 , 78 , 44 , 29 , 148 , 1 , 104 , 857 , -   ,,01/10/2012
24-10-2012,WED,30_2012/13, 104 , 265 , 145 , 92 , 46 , 29 , 136 , 1 , 94 , 818 , -   ,,01/10/2012
25-10-2012,THU,30_2012/13, 132 , 296 , 155 , 102 , 62 , 26 , 139 , 2 , 101 , 914 , -   ,,01/10/2012
26-10-2012,FRI,30_2012/13, 265 , 316 , 148 , 99 , 68 , 31 , 99 , 24 , 69 ," 1,050 ", -   ,,01/10/2012
27-10-2012,SAT,30_2012/13, 139 , 337 , 299 , 220 , 124 , 71 , 72 , 2 , 19 ," 1,264 ", -   ,,01/10/2012
28-10-2012,SUN,30_2012/13, 87 , 297 , 221 , 162 , 95 , 47 , 47 , 2 , 16 , 958 , -   ,,01/10/2012
29-10-2012,MON,31_2012/13, 80 , 282 , 201 , 109 , 75 , 48 , 144 , 3 , 104 , 942 , -   ,,01/10/2012
30-10-2012,TUE,31_2012/13, 106 , 253 , 200 , 124 , 72 , 43 , 155 ,               -   , 102 , 953 , -   ,,01/10/2012
31-10-2012,WED,31_2012/13, 127 , 255 , 187 , 139 , 96 , 44 , 140 ,               -   , 99 , 988 , -   ,,01/10/2012
01-11-2012,THU,31_2012/13, 113 , 329 , 205 , 150 , 84 , 36 , 161 , 2 , 104 ," 1,080 ", -   ,,01/11/2012
02-11-2012,FRI,31_2012/13, 101 , 288 , 211 , 165 , 108 , 59 , 134 , 2 , 84 ," 1,068 ", -   ,,01/11/2012
03-11-2012,SAT,31_2012/13, 125 , 327 , 314 , 256 , 163 , 69 , 73 , 1 , 16 ," 1,328 ", -   ,,01/11/2012
04-11-2012,SUN,31_2012/13, 93 , 323 , 200 , 128 , 45 , 28 , 30 , 3 , 20 , 850 , -   ,,01/11/2012
05-11-2012,MON,32_2012/13, 113 , 303 , 160 , 112 , 44 , 30 , 142 ,               -   , 98 , 904 , -   ,,01/11/2012
06-11-2012,TUE,32_2012/13, 122 , 275 , 194 , 106 , 43 , 33 , 153 , 2 , 100 , 928 , -   ,,01/11/2012
07-11-2012,WED,32_2012/13, 77 , 264 , 137 , 101 , 68 , 45 , 160 , 1 , 105 , 853 , -   ,,01/11/2012
08-11-2012,THU,32_2012/13, 102 , 301 , 153 , 101 , 60 , 36 , 162 ,               -   , 97 , 915 , -   ,,01/11/2012
09-11-2012,FRI,32_2012/13, 109 , 214 , 164 , 106 , 72 , 31 , 138 , 1 , 98 , 835 , -   ,,01/11/2012
10-11-2012,SAT,32_2012/13, 147 , 360 , 298 , 227 , 141 , 67 , 83 , 2 , 16 ," 1,325 ", -   ,,01/11/2012
11-11-2012,SUN,32_2012/13, 80 , 313 , 227 , 149 , 73 , 28 , 44 , 4 , 19 , 918 , -   ,,01/11/2012
12-11-2012,MON,33_2012/13, 87 , 265 , 153 , 84 , 61 , 25 , 139 ,               -   , 106 , 814 , -   ,,01/11/2012
13-11-2012,TUE,33_2012/13, 99 , 252 , 153 , 105 , 50 , 20 , 147 , 2 , 98 , 828 , -   ,,01/11/2012
14-11-2012,WED,33_2012/13, 98 , 246 , 152 , 104 , 51 , 48 , 163 , 4 , 109 , 866 , -   ,,01/11/2012
15-11-2012,THU,33_2012/13, 108 , 275 , 164 , 103 , 50 , 27 , 153 , 3 , 103 , 883 , -   ,,01/11/2012